TimePDT,TemperatureF,Dew PointF,Humidity,Sea Level PressureIn,VisibilityMPH,Wind Direction,Wind SpeedMPH,Gust SpeedMPH,PrecipitationIn,Events,Conditions,WindDirDegrees,DateUTC
12:52 AM,54.0,43.0,66,29.88,-9999.0,NE,5.8,-,N/A,,Unknown,50,2012-09-25 07:52:00
1:52 AM,52.0,42.1,69,29.88,-9999.0,ENE,4.6,-,N/A,,Unknown,60,2012-09-25 08:52:00
2:52 AM,51.1,41.0,68,29.87,-9999.0,NE,4.6,-,N/A,,Unknown,50,2012-09-25 09:52:00
3:52 AM,50.0,41.0,71,29.86,-9999.0,NE,4.6,-,N/A,,Unknown,50,2012-09-25 10:52:00
4:52 AM,48.9,39.9,71,29.86,-9999.0,NE,4.6,-,N/A,,Unknown,50,2012-09-25 11:52:00
5:52 AM,48.0,37.9,68,29.87,-9999.0,NE,3.5,-,N/A,,Unknown,50,2012-09-25 12:52:00
6:52 AM,48.0,37.9,68,29.88,-9999.0,NE,5.8,-,N/A,,Unknown,50,2012-09-25 13:52:00
7:52 AM,57.0,42.1,57,29.88,-9999.0,ENE,3.5,-,N/A,,Unknown,60,2012-09-25 14:52:00
8:52 AM,69.1,43.0,39,29.88,-9999.0,Calm,Calm,-,N/A,,Unknown,0,2012-09-25 15:52:00
9:52 AM,77.0,39.9,26,29.86,-9999.0,SSW,11.5,-,N/A,,Unknown,200,2012-09-25 16:52:00
10:52 AM,80.1,41.0,25,29.85,-9999.0,SW,17.3,20.7,N/A,,Unknown,220,2012-09-25 17:52:00
11:52 AM,82.0,41.0,23,29.84,-9999.0,SW,16.1,23.0,N/A,,Unknown,220,2012-09-25 18:52:00
12:52 PM,82.0,41.0,23,29.82,-9999.0,SW,18.4,26.5,N/A,,Unknown,230,2012-09-25 19:52:00
1:52 PM,82.0,45.0,27,29.81,-9999.0,SW,17.3,24.2,N/A,,Unknown,230,2012-09-25 20:52:00
2:52 PM,81.0,44.1,27,29.80,-9999.0,SSW,16.1,25.3,N/A,,Unknown,210,2012-09-25 21:52:00
3:52 PM,80.1,46.9,31,29.80,-9999.0,SW,15.0,26.5,N/A,,Unknown,230,2012-09-25 22:52:00
4:52 PM,78.1,46.9,33,29.80,-9999.0,WSW,11.5,-,N/A,,Unknown,240,2012-09-25 23:52:00
5:52 PM,75.0,50.0,41,29.80,-9999.0,SW,10.4,-,N/A,,Unknown,230,2012-09-26 00:52:00
6:52 PM,66.9,51.1,57,29.82,-9999.0,SW,8.1,-,N/A,,Unknown,220,2012-09-26 01:52:00
7:52 PM,64.0,51.1,63,29.83,-9999.0,Calm,Calm,-,N/A,,Unknown,0,2012-09-26 02:52:00
8:52 PM,59.0,48.9,69,29.84,-9999.0,NE,3.5,-,N/A,,Unknown,40,2012-09-26 03:52:00
9:52 PM,54.0,46.0,75,29.84,-9999.0,NNE,4.6,-,N/A,,Unknown,30,2012-09-26 04:52:00
10:52 PM,55.0,46.9,74,29.84,-9999.0,NE,3.5,-,N/A,,Unknown,50,2012-09-26 05:52:00
11:52 PM,52.0,45.0,77,29.84,-9999.0,NE,4.6,-,N/A,,Unknown,50,2012-09-26 06:52:00